Flag for Cuba Weather past 2 weeks in Santiago de Cuba, Cuba

Now
79 °F

Passing clouds.


Feels Like: 81 °F
Forecast: 75 / 90 °F
Wind: 6 mph from North

Location: Santiago De Cuba - Oriente

Current Time: Sep 2, 2015 at 3:29:01 AM

Latest Report: Sep 2, 2015 at 2:50 AM


Visibility: 6 mi

Pressure: 30.01 "Hg

Humidity: 74%

Dew point: 70 °F

Location of Santiago de CubaLocation

Historic Weather in Santiago de Cuba — Graph

°F

Santiago de Cuba temperature yesterday

Maximum temperature yesterday: 90 °F (at 9:50 AM)
Minimum temperature yesterday: 77 °F (at 4:50 AM)
Average temperature yesterday: 83 °F

Past Weeks' High & Low Weather Summary

 TemperatureHumidityPressure
High91 °F (Aug 28, 10:50 AM)100% (Sep 1, 5:51 AM)30.04 "Hg (Sep 1, 5:51 AM)
Low75 °F (Aug 19, 4:50 AM)49% (Aug 28, 10:50 AM)29.83 "Hg (Aug 28, 3:51 PM)
Average83 °F70%29.96 "Hg
* Reported Aug 18 1:51 AM — Sep 2 1:50 AM, Santiago de Cuba, Weather by CustomWeather, © 2015

Note: Actual official high and low records may vary slightly from our data, if they occured in-between our weather recording intervals... More about our weather records

Advertising

Santiago de Cuba weather history for previous 24 hours

 ConditionsComfort  
Time TempWeatherWind HumidityBarometerVisibility
1:50 AM
Wed, Sep 2
79 °FPassing clouds.3 mph74%30.01 "Hg6 mi
12:50 AM79 °FPassing clouds.5 mph74%30.04 "Hg6 mi
11:50 PM
Tue, Sep 1
79 °FPassing clouds.7 mph74%30.04 "Hg6 mi
10:51 PM81 °FPassing clouds.6 mph70%30.04 "Hg6 mi
9:51 PM79 °FPassing clouds.5 mph74%30.04 "Hg6 mi
8:52 PM82 °FPassing clouds.5 mph70%30.01 "Hg6 mi
7:52 PM81 °FScattered clouds.3 mph70%30.01 "Hg6 mi
6:56 PM82 °FScattered clouds.5 mph66%29.98 "Hg6 mi
5:51 PM84 °FScattered clouds.5 mph58%29.98 "Hg6 mi
4:52 PM86 °FScattered showers. Scattered clouds.5 mph66%N/A6 mi
3:51 PM88 °FScattered showers. Scattered clouds.9 mph59%29.98 "Hg6 mi
2:51 PM90 °FScattered clouds.9 mph55%29.98 "Hg6 mi
1:51 PM90 °FScattered clouds.9 mph55%30.01 "Hg6 mi
12:51 PM90 °FScattered clouds.9 mph55%30.01 "Hg6 mi
11:51 AM90 °FPassing clouds.8 mph49%30.04 "Hg6 mi
10:50 AM90 °FPassing clouds.3 mph49%30.04 "Hg6 mi
9:50 AM90 °FPassing clouds.5 mph59%30.04 "Hg6 mi
8:51 AM84 °FPassing clouds.7 mph70%30.04 "Hg6 mi
7:50 AM79 °FPassing clouds.7 mph94%30.01 "Hg6 mi
6:50 AM77 °FPassing clouds.6 mph94%30.01 "Hg6 mi
5:51 AM77 °FPassing clouds.6 mph100%30.01 "Hg6 mi
4:50 AM77 °FPassing clouds.3 mph94%30.01 "Hg6 mi
3:51 AM79 °FPassing clouds.5 mph94%30.01 "Hg6 mi
Weather by CustomWeather, © 2015

See weather overviewHow to use our weather pages